Location: ????????
(55.0559°N, 39.1270°E)
Time: 18:22:34
(UTC+00:00)

SL-16 R/B - Pass Details

Date: 15 November 2025
Orbit: 840 x 847 km, 71.0° (Epoch: 14 December)

Event Time Altitude Azimuth Distance (km) Brightness Sun altitude
Rises 02:52:51 0° 205° (SSW) 3,399 5.2 -17.2°
Reaches altitude 10° 02:55:17 10° 204° (SSW) 2,468 4.5 -16.9°
Maximum altitude 03:00:56 76° 120° (ESE) 878 2.4 -16.1°
Drops below altitude 10° 03:06:38 10° 36° (NE) 2,483 5.0 -15.3°
Sets 03:09:06 0° 35° (NE) 3,422 5.7 -15.0°
